Probability
6 8 12 19 22 20 17 14 10 7 6 5 4 3 1 0 0 0 0 0 0 0 0 0 0 0 0 0 0 0 0 0 0 0 0 0 0 0 0 0 0 0 0
13 12 15 21 24 24 21 18 13 9 7 5 4 2 1 0 0 0 0 0 0 0 0 0 0 0 0 0 0 0 0 0 0 0 0 0 0 0 0 0 0 0 0
21 21 23 27 30 30 28 23 18 14 11 8 7 5 3 2 1 0 0 0 0 0 0 0 0 0 0 0 0 0 0 0 0 0 0 0 0 0 0 0 0 0 0
27 28 31 35 37 37 33 26 22 21 19 16 15 13 10 6 3 1 0 0 0 0 0 0 0 0 0 0 0 0 0 0 0 0 0 0 0 0 0 0 0 0 0
30 34 38 41 43 43 36 28 25 26 26 24 23 21 16 11 7 3 2 1 0 1 1 1 1 0 0 0 0 0 0 0 0 0 0 0 0 0 0 0 0 0 0
28 35 41 44 46 43 37 30 27 27 28 26 25 23 19 13 9 7 5 3 2 3 3 3 2 1 1 1 0 0 0 0 0 0 0 0 0 0 0 0 0 0 0
23 31 41 46 47 43 37 31 28 27 27 26 24 21 17 13 10 8 7 5 5 5 5 4 3 3 2 2 1 1 0 0 0 0 0 0 0 0 0 0 0 0 0
17 24 37 45 46 43 37 33 29 27 25 25 24 21 16 13 10 8 7 7 6 6 5 4 3 2 2 2 2 2 1 0 0 0 0 0 0 0 0 0 0 0 0
14 21 32 40 42 40 37 34 32 28 25 25 24 20 16 14 11 8 6 6 6 6 4 2 1 1 1 1 2 3 1 0 0 0 0 0 0 0 0 0 0 0 0
15 20 29 36 37 37 36 35 34 30 25 25 24 20 16 14 11 8 6 6 5 4 2 1 0 0 0 0 1 2 2 1 1 0 0 0 0 0 0 0 0 0 0
16 20 26 31 34 35 36 36 33 29 26 27 25 21 17 13 10 8 5 4 3 2 1 0 0 0 0 0 0 1 3 2 2 1 0 0 0 0 0 0 0 0 0
15 18 22 27 30 34 37 36 32 27 26 28 27 23 19 14 10 9 8 6 3 2 2 1 0 0 1 1 1 2 3 3 2 1 0 0 0 0 0 0 1 1 1
15 16 19 24 28 33 37 37 33 28 27 28 27 26 23 20 16 13 11 9 6 5 6 4 1 1 2 3 3 3 3 3 3 3 2 1 0 0 0 0 1 2 2
15 14 16 21 26 31 33 33 31 30 30 30 29 27 26 25 21 16 12 10 9 9 8 6 3 2 3 5 5 5 4 4 4 4 4 3 2 1 1 1 1 2 2
13 12 14 19 23 26 28 27 28 30 33 33 30 27 25 25 22 18 13 10 10 10 9 8 6 4 3 4 4 5 5 3 2 2 3 3 2 2 2 2 2 2 2
13 14 18 21 23 25 27 26 26 30 32 33 31 27 24 23 20 19 16 13 11 10 10 9 8 6 4 2 1 3 4 3 1 1 1 2 2 2 1 1 1 1 2
15 17 22 24 24 25 27 27 27 28 29 30 29 27 23 20 19 20 18 15 11 10 10 8 6 5 3 1 0 1 2 3 2 1 1 2 2 2 2 1 1 1 1
16 19 22 22 20 20 23 25 25 25 25 25 25 24 21 18 18 18 17 12 9 9 9 6 4 3 2 1 0 0 1 2 2 1 1 1 2 2 2 2 2 2 2
16 18 19 19 17 17 21 24 22 20 20 20 20 20 19 17 15 14 12 9 7 7 7 6 4 4 3 1 0 0 0 1 1 1 2 2 1 1 1 1 3 3 3
16 18 18 18 17 19 23 24 21 17 15 14 15 15 15 14 11 9 8 7 7 5 4 5 6 5 3 1 0 0 0 1 2 3 3 2 1 0 0 1 2 2 1
17 17 18 17 18 21 23 23 20 16 12 11 12 12 10 8 7 7 7 7 5 3 3 4 5 6 4 1 0 0 0 2 3 3 3 2 1 0 0 0 1 1 0
15 14 13 14 17 20 23 22 20 17 14 13 13 10 6 5 6 7 8 7 4 3 3 4 4 5 4 2 0 0 0 1 2 2 2 2 1 0 0 0 0 0 0
15 13 11 13 16 19 22 22 21 19 17 16 13 8 4 4 6 7 7 6 5 4 5 4 4 4 4 2 1 0 0 0 1 1 1 1 0 0 0 0 0 0 0
18 16 15 16 17 17 18 18 19 19 18 16 12 7 4 4 6 7 6 5 5 4 3 3 3 3 3 2 1 0 0 0 0 0 0 0 0 0 0 0 0 0 0
20 19 19 18 17 15 13 13 15 17 18 16 11 6 3 3 5 5 4 3 2 1 1 1 1 2 1 1 0 0 0 0 0 0 0 0 0 0 0 0 0 0 0
20 21 21 19 16 13 11 11 13 15 17 17 12 6 3 2 3 3 2 1 0 0 0 0 0 1 0 0 0 0 0 0 0 0 0 0 0 0 0 0 0 0 0
Wind_Speed
11 9 10 12 11 10 10 10 10 8 7 5 5 4 4 3 3 4 5 5 5 5 4 3 3 3 3 3 3 2 2 1 1 2 2 2 1 1 2 2 2 3 4
9 10 11 12 13 13 12 11 11 10 8 6 5 3 3 3 3 3 4 5 5 5 5 4 4 4 3 3 3 3 2 1 1 2 2 1 2 2 1 1 3 4 3
13 12 12 13 13 14 14 13 12 10 9 7 4 3 2 1 2 3 3 4 5 6 5 5 4 4 4 4 4 4 4 2 1 1 3 2 2 2 2 1 2 3 3
11 11 12 13 14 14 12 11 11 10 9 9 8 8 7 6 5 4 4 4 5 6 6 6 5 5 4 4 5 4 3 4 2 1 1 1 3 2 1 2 1 2 3
12 13 14 14 12 11 11 10 9 9 9 10 10 9 7 5 3 3 5 5 4 5 6 6 6 5 4 5 5 4 4 3 3 3 2 2 1 1 2 2 2 2 2
11 10 9 8 8 9 9 9 10 10 10 10 10 10 9 7 6 6 6 5 3 4 5 6 6 6 5 5 5 5 5 4 4 3 3 3 3 3 3 2 2 2 2
9 10 11 11 11 11 12 11 12 11 10 11 11 11 10 9 9 8 7 5 4 4 6 6 5 5 5 5 5 5 5 6 5 5 4 3 3 3 3 2 2 2 2
8 10 11 12 12 13 12 12 12 11 11 11 10 9 9 7 6 7 6 6 6 6 6 6 6 6 6 6 5 5 5 5 5 6 4 3 4 3 4 3 3 1 1
8 9 10 11 11 12 12 12 12 10 10 10 9 8 9 8 8 7 6 5 5 5 6 6 6 6 6 6 5 4 5 5 5 5 5 4 3 4 4 3 4 3 2
5 7 8 9 10 10 9 9 10 10 9 9 9 8 8 8 7 6 7 7 7 6 7 7 7 6 6 5 5 4 5 5 5 4 5 4 3 3 3 4 3 3 3
5 6 7 8 8 8 8 8 8 8 8 8 8 8 8 8 7 7 8 7 6 7 7 7 7 6 7 6 6 6 6 6 5 5 5 5 4 4 3 3 3 4 4
3 5 6 6 7 8 8 8 7 8 8 7 7 7 7 7 7 7 7 6 6 6 7 7 6 7 7 6 7 7 7 7 7 6 6 6 4 5 4 4 4 4 4
3 4 5 6 6 7 6 7 7 7 6 6 6 6 6 7 7 7 6 6 6 5 6 6 7 7 6 6 7 7 6 6 6 6 6 6 6 6 5 5 4 4 4
3 4 4 5 5 6 5 6 5 5 5 6 6 7 7 7 7 6 6 6 6 6 6 6 6 6 6 6 6 6 5 5 5 5 6 6 7 7 6 5 5 4 3
2 4 5 4 4 5 5 4 4 4 5 6 6 7 6 6 5 5 5 5 5 6 5 5 5 5 5 5 6 6 5 5 5 4 5 5 6 7 6 5 5 5 4
3 3 4 4 4 5 5 4 4 4 5 6 6 5 5 5 5 5 5 4 4 4 4 4 5 5 4 5 7 5 4 4 5 4 4 4 5 7 8 8 7 7 6
3 4 5 4 4 4 4 4 4 4 5 5 5 5 5 5 6 6 5 5 4 4 4 4 4 4 3 5 5 6 4 4 3 4 4 3 4 5 4 5 5 5 5
2 3 3 3 3 3 3 4 4 4 4 4 4 4 5 5 5 5 5 4 3 4 3 3 3 2 1 3 4 4 3 3 3 3 4 3 3 3 4 3 3 2 2
2 2 3 3 3 4 4 4 4 3 3 3 3 3 5 5 5 5 5 4 4 4 3 3 3 3 2 2 3 3 2 2 2 2 2 2 2 2 4 4 3 2 2
2 3 3 3 4 3 4 5 4 4 3 3 3 3 4 5 5 4 4 4 4 4 4 3 3 3 2 2 3 4 2 2 1 0 0 1 1 1 3 3 3 3 3
4 4 4 4 3 3 5 5 4 3 3 3 4 4 4 5 4 4 4 4 5 5 4 4 3 3 3 3 3 3 2 2 1 0 0 1 2 1 1 2 2 3 2
5 5 4 4 3 3 5 5 3 2 4 4 5 4 4 4 4 5 4 5 5 5 5 4 4 3 3 3 3 3 2 2 2 1 1 1 3 3 2 1 1 1 1
4 5 5 4 4 3 4 4 2 4 5 6 5 5 5 4 5 5 5 4 4 4 4 3 3 2 2 3 4 4 4 4 3 3 4 4 5 4 4 4 3 2 2
4 4 5 5 4 3 3 3 3 4 6 6 5 5 6 6 5 4 4 4 3 3 3 3 3 3 3 3 3 3 4 5 4 3 5 6 6 5 6 5 4 3 3
3 4 5 5 4 3 3 3 4 5 7 6 5 6 6 6 6 6 5 5 4 3 3 3 3 3 3 2 3 3 3 3 4 4 4 4 5 5 5 5 5 5 4
4 4 5 5 4 4 4 3 3 5 7 6 5 5 6 6 6 7 7 12 10 11 10 8 6 5 6 7 8 8 8 8 7 7 6 6 5 5 5 5 5 5 5
Wind_Direction
204 186 182 184 182 182 184 186 186 184 175 172 176 174 184 186 186 194 188 185 184 179 174 173 164 163 169 171 151 130 123 113 116 90 41 3 351 254 237 230 223 224 224
191 186 181 182 186 189 189 190 191 187 185 187 180 169 164 182 189 192 186 187 184 182 186 176 175 174 167 163 159 149 136 136 140 127 100 7 345 333 261 226 223 229 222
198 192 187 187 187 192 193 195 193 188 187 179 156 138 120 113 163 187 196 196 187 187 187 183 178 178 176 182 184 172 163 168 166 148 147 153 230 306 326 284 243 230 220
199 192 191 192 194 194 190 192 188 186 183 176 176 175 182 191 194 183 191 194 190 190 189 185 183 182 182 186 193 184 172 160 173 172 175 170 164 164 315 322 306 264 237
197 194 196 197 194 187 185 186 183 186 184 184 187 188 194 192 173 169 183 194 196 197 193 187 185 186 189 193 193 181 180 176 176 175 170 154 135 150 169 271 309 309 264
198 194 192 187 184 178 178 179 185 192 187 187 189 193 194 185 178 185 191 196 193 199 200 194 192 191 191 197 198 191 189 194 189 184 179 173 174 184 178 209 246 270 281
194 187 182 183 183 181 182 183 189 194 190 191 195 197 196 191 194 193 196 193 193 202 206 201 195 196 198 198 194 194 200 198 196 198 201 199 200 173 168 174 211 250 283
198 193 190 187 188 187 185 186 191 196 192 195 200 198 195 195 202 200 194 199 204 207 199 199 200 202 201 202 195 200 206 200 205 210 203 205 209 189 183 177 172 216 276
198 193 187 186 185 185 187 188 190 195 194 197 198 198 197 196 199 197 196 202 205 203 195 198 203 205 204 203 193 204 206 197 205 211 207 211 213 203 205 191 181 180 223
196 188 183 181 182 183 183 183 189 195 194 194 199 203 201 199 197 194 199 203 204 201 194 198 202 202 200 200 198 203 203 199 207 204 205 213 214 209 202 200 201 196 198
190 183 182 176 172 170 173 180 187 191 193 195 196 196 195 194 194 199 204 204 202 198 197 196 197 197 196 194 197 206 200 203 211 209 208 218 209 209 206 200 201 202 194
174 166 162 160 162 167 172 178 185 193 196 193 191 191 188 186 192 200 203 201 201 199 197 194 195 201 202 197 201 209 207 209 214 213 208 220 216 214 210 203 208 210 203
135 137 139 151 162 168 172 178 187 194 190 183 187 191 188 189 197 198 196 194 194 194 196 195 198 203 201 200 205 210 210 213 218 214 210 219 213 218 213 207 210 214 211
140 142 145 154 160 164 172 179 185 183 176 177 187 196 198 195 198 193 192 196 194 197 200 200 200 201 199 200 203 205 211 215 219 217 217 221 218 217 210 209 209 206 204
140 150 155 156 159 161 170 177 178 174 174 180 190 202 198 189 188 188 188 192 194 202 200 197 198 198 200 207 206 205 208 210 220 225 222 223 220 217 210 206 202 197 200
168 163 155 158 163 164 170 170 173 174 172 184 194 194 184 182 185 186 183 185 192 191 184 191 193 197 208 207 203 198 201 205 212 223 228 226 225 225 219 215 204 193 198
184 170 166 172 174 170 165 169 170 162 169 182 187 182 178 182 185 181 177 186 191 181 174 180 181 193 200 193 195 191 189 199 212 219 227 236 233 218 215 211 206 209 212
187 173 163 163 168 157 148 145 144 151 161 168 177 178 174 179 175 167 173 180 175 167 169 166 162 157 172 173 187 188 186 195 213 220 222 226 233 218 195 187 187 204 215
180 170 162 157 146 142 147 140 140 148 155 162 169 170 167 165 163 168 172 167 152 143 141 136 136 139 146 149 157 153 152 178 218 230 226 211 215 217 185 178 194 218 239
95 97 103 110 116 134 134 134 141 142 163 170 160 139 140 147 155 158 153 139 133 132 126 115 116 126 124 123 139 146 141 147 182 307 331 292 235 219 181 188 199 221 242
85 80 88 96 108 125 124 127 135 148 160 138 126 122 123 130 131 123 120 119 118 116 111 106 94 91 89 94 109 136 143 156 157 152 19 16 58 62 133 175 201 225 219
80 82 79 77 82 103 114 116 131 135 120 115 109 107 108 115 117 114 110 112 119 119 117 110 93 70 68 74 86 107 111 116 120 123 85 57 69 68 61 94 92 111 122
82 88 96 85 66 66 100 113 118 118 116 109 103 99 99 97 102 109 112 111 115 116 114 113 107 86 64 61 70 85 98 100 98 86 81 70 68 69 60 52 60 83 93
88 98 100 91 76 65 77 102 106 112 112 110 108 105 102 93 86 88 91 96 99 107 112 113 110 97 77 63 64 76 84 89 94 88 76 70 62 62 55 46 47 55 60
78 86 99 98 85 75 73 82 101 116 113 113 115 111 107 105 94 82 69 81 68 87 117 120 116 108 94 66 78 91 85 90 96 95 74 62 59 59 55 52 50 47 46
85 87 90 96 93 94 87 76 94 115 120 116 114 112 113 111 109 104 84 60 69 68 69 75 88 82 87 88 83 80 78 81 92 86 75 68 64 63 59 56 51 46 40